Flag for Romania Weather past 2 weeks in Timișoara, Romania

Now
52 °F

Passing clouds.


Feels Like: 47 °F
Forecast: 40 / 58 °F
Wind: 15 mph from North

Location: Timisoara Airport


UV Index: 0 (Low)

Visibility: N/A


Pressure: 29.95 "Hg

Humidity: 67%

Dew point: 41 °F

Location of TimișoaraLocation

Historic Weather in Timișoara

°F

Timișoara temperature yesterday

Maximum temperature yesterday: 55 °F (at 2:30 PM)
Minimum temperature yesterday: 39 °F (at 11:30 PM)
Average temperature yesterday: 48 °F

Past Weeks' High & Low Weather Summary

 TemperatureHumidityPressure
High73 °F (Apr 4, 4:30 PM)100% (Apr 2, 6:00 AM)30.09 "Hg (Apr 2, 6:00 AM)
Low32 °F (Apr 10, 7:30 AM)33% (Apr 8, 3:00 PM)29.71 "Hg (Apr 5, 4:30 AM)
Average52 °F76%29.95 "Hg
* Reported Apr 1 1:00 PM — Apr 16 1:30 PM, Timișoara, Weather by CustomWeather, © 2014

Note: Actual official high and low records may vary slightly from our data, if they occured in-between our weather recording intervals... More about our weather records

Advertising

Historic Weather Conditions — Data for Previous 24 hours

 ConditionsComfort  
Time TempWeatherWind HumidityBarometerVisibility
1:30 PM
Apr 16
52 °FPassing clouds.15 mph62%29.95 "HgN/A
1:00 PM50 °FSunny.16 mph67%29.98 "Hg10 mi
12:30 PM50 °FPassing clouds.15 mph71%29.98 "HgN/A
12:00 PM50 °FPassing clouds.10 mph71%29.98 "HgN/A
11:30 AM46 °FPassing clouds.12 mph82%29.98 "HgN/A
11:00 AM46 °FSunny.15 mph82%29.98 "Hg10 mi
10:30 AM46 °FSunny.14 mph82%29.98 "Hg10 mi
10:00 AM45 °FSunny.17 mph93%29.98 "Hg10 mi
9:30 AM43 °FSunny.15 mph100%29.98 "Hg10 mi
9:00 AM41 °FPassing clouds.8 mph93%29.98 "HgN/A
8:30 AM39 °FPassing clouds.5 mph100%29.98 "HgN/A
8:00 AM39 °FSunny.1 mph93%29.98 "Hg10 mi
7:30 AM39 °FClear.6 mph93%29.95 "Hg10 mi
7:00 AM39 °FPassing clouds.5 mph93%29.95 "HgN/A
6:30 AM37 °FPassing clouds.3 mph93%29.95 "HgN/A
6:00 AM37 °FClear.7 mph93%29.95 "Hg10 mi
5:30 AM36 °FClear.3 mph93%29.95 "Hg10 mi
5:00 AM37 °FClear.7 mph93%29.95 "Hg10 mi
4:30 AM37 °FClear.5 mph93%29.95 "Hg10 mi
4:00 AM37 °FPassing clouds.6 mph93%29.95 "HgN/A
3:30 AM37 °FClear.7 mph93%29.95 "Hg10 mi
2:00 AM39 °FClear.5 mph93%29.95 "Hg10 mi
1:30 AM37 °FClear.3 mph93%29.95 "Hg10 mi
1:00 AM37 °FClear.6 mph100%29.95 "Hg10 mi
12:30 AM37 °FClear.6 mph100%29.95 "Hg10 mi
12:00 AM39 °FClear.6 mph93%29.95 "Hg10 mi
11:30 PM
Apr 15
39 °FClear.3 mph100%29.95 "Hg10 mi
11:00 PM41 °FClear.5 mph93%29.95 "Hg10 mi
10:30 PM43 °FClear.7 mph93%29.95 "Hg10 mi
10:00 PM46 °FClear.6 mph76%29.95 "Hg10 mi
9:30 PM48 °FClear.9 mph66%29.92 "Hg10 mi
9:00 PM46 °FSunny.9 mph66%29.92 "Hg10 mi
8:30 PM46 °FSunny.8 mph71%29.92 "Hg10 mi
8:00 PM48 °FSunny.6 mph76%29.92 "Hg10 mi
7:30 PM52 °FSunny.9 mph58%29.92 "Hg10 mi
7:00 PM54 °FPassing clouds.13 mph47%29.92 "HgN/A
6:30 PM55 °FSunny.14 mph47%29.92 "Hg10 mi
6:00 PM55 °FPassing clouds.12 mph44%29.89 "HgN/A
5:30 PM55 °FPassing clouds.14 mph47%29.89 "HgN/A
5:00 PM54 °FScattered clouds.13 mph54%29.89 "HgN/A
4:30 PM54 °FPassing clouds.13 mph58%29.89 "HgN/A
4:00 PM55 °FPassing clouds.13 mph59%29.89 "HgN/A
3:30 PM54 °FPassing clouds.12 mph58%29.89 "HgN/A
3:00 PM52 °FPassing clouds.9 mph67%29.89 "HgN/A
2:30 PM55 °FScattered clouds.9 mph59%29.89 "HgN/A
2:00 PM54 °FPassing clouds.9 mph63%29.92 "HgN/A
Weather by CustomWeather, © 2014

See weather overview